QPF
0.03 0.02 0.02 0.04 0.05 0.06 0.06 0.06 0.08 0.09 0.11 0.14 0.17 0.21 0.22 0.24 0.28 0.29 0.28 0.25 0.25 0.26 0.26 0.25 0.25 0.23 0.19 0.14 0.13 0.15 0.14 0.10 0.06 0.04 0.02 0.01 0.00 0.00 0.00 0.00 0.00 0.00 0.00
0.03 0.03 0.03 0.03 0.05 0.06 0.06 0.07 0.07 0.09 0.13 0.13 0.13 0.17 0.23 0.26 0.29 0.30 0.31 0.26 0.24 0.25 0.27 0.25 0.23 0.22 0.21 0.17 0.11 0.11 0.12 0.10 0.06 0.04 0.03 0.02 0.01 0.00 0.00 0.00 0.00 0.00 0.00
0.03 0.03 0.05 0.04 0.05 0.08 0.08 0.07 0.07 0.09 0.13 0.16 0.18 0.18 0.27 0.34 0.35 0.36 0.35 0.27 0.23 0.24 0.25 0.25 0.22 0.21 0.21 0.19 0.15 0.10 0.09 0.08 0.05 0.03 0.02 0.01 0.01 0.00 0.00 0.00 0.00 0.00 0.00
0.03 0.04 0.05 0.05 0.05 0.08 0.08 0.08 0.07 0.11 0.14 0.16 0.22 0.20 0.25 0.33 0.34 0.33 0.37 0.30 0.23 0.24 0.26 0.25 0.22 0.20 0.19 0.18 0.15 0.13 0.10 0.07 0.05 0.02 0.01 0.00 0.00 0.00 0.00 0.00 0.00 0.00 0.00
0.03 0.04 0.04 0.04 0.05 0.07 0.08 0.09 0.08 0.11 0.16 0.17 0.21 0.23 0.21 0.26 0.31 0.35 0.36 0.34 0.27 0.23 0.26 0.27 0.25 0.22 0.19 0.17 0.15 0.12 0.11 0.08 0.05 0.03 0.01 0.01 0.00 0.00 0.00 0.00 0.00 0.00 0.00
0.02 0.03 0.03 0.03 0.04 0.06 0.08 0.10 0.10 0.10 0.15 0.16 0.17 0.23 0.23 0.23 0.29 0.35 0.39 0.37 0.33 0.26 0.24 0.26 0.26 0.24 0.22 0.19 0.16 0.12 0.10 0.07 0.05 0.03 0.02 0.02 0.01 0.01 0.00 0.00 0.00 0.00 0.00
0.02 0.03 0.03 0.04 0.05 0.06 0.07 0.09 0.12 0.12 0.13 0.16 0.18 0.21 0.25 0.25 0.26 0.29 0.31 0.36 0.36 0.31 0.25 0.24 0.23 0.22 0.22 0.22 0.20 0.16 0.10 0.07 0.05 0.03 0.02 0.02 0.02 0.01 0.01 0.00 0.00 0.00 0.00
0.01 0.02 0.03 0.05 0.06 0.06 0.07 0.09 0.10 0.12 0.13 0.18 0.21 0.23 0.24 0.28 0.27 0.29 0.26 0.28 0.31 0.28 0.25 0.22 0.21 0.19 0.19 0.20 0.20 0.20 0.16 0.10 0.06 0.03 0.03 0.03 0.02 0.01 0.01 0.00 0.00 0.00 0.00
0.01 0.01 0.02 0.04 0.06 0.07 0.06 0.08 0.08 0.11 0.12 0.17 0.24 0.27 0.26 0.26 0.28 0.28 0.27 0.24 0.25 0.26 0.23 0.22 0.22 0.19 0.18 0.18 0.18 0.18 0.17 0.12 0.08 0.04 0.03 0.03 0.02 0.01 0.01 0.00 0.00 0.00 0.00
0.01 0.01 0.02 0.04 0.06 0.08 0.07 0.07 0.07 0.09 0.11 0.13 0.21 0.26 0.28 0.26 0.28 0.28 0.29 0.26 0.22 0.21 0.21 0.20 0.21 0.19 0.17 0.18 0.17 0.16 0.15 0.12 0.08 0.05 0.03 0.02 0.01 0.01 0.01 0.00 0.00 0.00 0.00
0.01 0.01 0.01 0.03 0.05 0.07 0.09 0.08 0.08 0.09 0.09 0.11 0.17 0.23 0.28 0.29 0.28 0.28 0.30 0.29 0.23 0.18 0.17 0.17 0.16 0.17 0.16 0.16 0.15 0.14 0.14 0.12 0.09 0.05 0.03 0.02 0.01 0.01 0.01 0.00 0.00 0.00 0.00
0.01 0.01 0.01 0.03 0.04 0.05 0.07 0.09 0.09 0.08 0.09 0.09 0.13 0.20 0.26 0.30 0.28 0.25 0.27 0.31 0.30 0.22 0.16 0.14 0.13 0.14 0.14 0.14 0.13 0.12 0.12 0.10 0.08 0.05 0.03 0.02 0.01 0.01 0.00 0.00 0.00 0.01 0.00
0.01 0.01 0.02 0.03 0.04 0.05 0.06 0.08 0.08 0.06 0.07 0.09 0.10 0.17 0.25 0.30 0.29 0.24 0.22 0.26 0.33 0.34 0.27 0.18 0.12 0.11 0.11 0.11 0.12 0.11 0.10 0.09 0.07 0.05 0.03 0.02 0.01 0.01 0.01 0.01 0.01 0.01 0.01
0.00 0.01 0.01 0.02 0.03 0.04 0.06 0.07 0.08 0.06 0.07 0.08 0.09 0.14 0.23 0.27 0.28 0.25 0.20 0.21 0.26 0.30 0.31 0.25 0.18 0.13 0.10 0.08 0.10 0.10 0.09 0.09 0.07 0.05 0.04 0.02 0.01 0.01 0.00 0.01 0.01 0.01 0.01
0.00 0.00 0.01 0.01 0.01 0.02 0.05 0.06 0.08 0.08 0.09 0.09 0.10 0.11 0.19 0.24 0.24 0.23 0.21 0.21 0.23 0.22 0.21 0.24 0.21 0.16 0.12 0.08 0.07 0.08 0.08 0.08 0.07 0.06 0.04 0.02 0.01 0.01 0.01 0.01 0.01 0.01 0.01
0.00 0.00 0.01 0.01 0.01 0.03 0.05 0.05 0.07 0.08 0.10 0.11 0.11 0.11 0.16 0.21 0.23 0.21 0.22 0.21 0.22 0.23 0.20 0.19 0.19 0.17 0.13 0.10 0.07 0.06 0.06 0.06 0.07 0.06 0.04 0.03 0.02 0.01 0.01 0.01 0.01 0.01 0.01
0.00 0.00 0.01 0.01 0.02 0.04 0.05 0.06 0.07 0.08 0.12 0.13 0.11 0.12 0.15 0.17 0.21 0.20 0.20 0.22 0.22 0.21 0.21 0.20 0.18 0.16 0.14 0.12 0.09 0.08 0.06 0.05 0.05 0.06 0.05 0.03 0.02 0.02 0.01 0.01 0.01 0.01 0.01
0.00 0.00 0.00 0.01 0.02 0.04 0.05 0.06 0.08 0.10 0.13 0.14 0.12 0.12 0.13 0.14 0.17 0.17 0.18 0.21 0.22 0.19 0.17 0.18 0.18 0.16 0.15 0.13 0.12 0.11 0.08 0.06 0.06 0.06 0.05 0.03 0.02 0.02 0.02 0.02 0.01 0.01 0.01
0.01 0.01 0.00 0.01 0.02 0.05 0.05 0.06 0.07 0.09 0.11 0.13 0.14 0.13 0.12 0.12 0.15 0.16 0.16 0.18 0.20 0.19 0.16 0.14 0.16 0.15 0.13 0.12 0.12 0.13 0.11 0.09 0.07 0.08 0.08 0.05 0.02 0.03 0.03 0.02 0.02 0.02 0.02
0.01 0.01 0.00 0.00 0.02 0.05 0.06 0.06 0.07 0.07 0.09 0.12 0.13 0.13 0.10 0.10 0.12 0.14 0.14 0.14 0.16 0.17 0.15 0.14 0.15 0.14 0.12 0.11 0.11 0.13 0.13 0.12 0.10 0.10 0.09 0.07 0.04 0.05 0.04 0.03 0.03 0.02 0.01
0.01 0.00 0.00 0.01 0.03 0.05 0.05 0.05 0.07 0.05 0.07 0.12 0.13 0.12 0.09 0.08 0.09 0.11 0.10 0.12 0.16 0.16 0.15 0.14 0.14 0.14 0.13 0.12 0.12 0.13 0.13 0.13 0.11 0.09 0.09 0.07 0.07 0.06 0.06 0.04 0.03 0.02 0.02
0.01 0.01 0.01 0.01 0.03 0.04 0.04 0.04 0.04 0.04 0.08 0.12 0.12 0.11 0.08 0.07 0.08 0.09 0.08 0.09 0.13 0.16 0.15 0.15 0.14 0.14 0.12 0.13 0.12 0.13 0.13 0.11 0.09 0.08 0.07 0.07 0.09 0.08 0.06 0.05 0.04 0.03 0.02
0.01 0.01 0.01 0.01 0.02 0.02 0.03 0.04 0.03 0.04 0.09 0.12 0.09 0.08 0.07 0.06 0.08 0.09 0.08 0.08 0.10 0.13 0.15 0.16 0.14 0.13 0.11 0.12 0.14 0.14 0.14 0.12 0.10 0.09 0.09 0.09 0.10 0.10 0.08 0.07 0.07 0.05 0.03
0.01 0.01 0.01 0.01 0.01 0.02 0.02 0.03 0.04 0.06 0.10 0.11 0.07 0.07 0.07 0.07 0.10 0.09 0.08 0.08 0.08 0.10 0.12 0.14 0.14 0.13 0.12 0.11 0.11 0.13 0.13 0.13 0.12 0.12 0.14 0.15 0.14 0.13 0.11 0.10 0.07 0.05 0.04
0.01 0.01 0.01 0.01 0.01 0.02 0.02 0.03 0.05 0.07 0.10 0.09 0.07 0.07 0.08 0.09 0.11 0.10 0.08 0.07 0.07 0.08 0.11 0.12 0.12 0.11 0.10 0.09 0.10 0.11 0.11 0.11 0.11 0.11 0.12 0.12 0.11 0.11 0.10 0.08 0.07 0.06 0.06
0.02 0.01 0.01 0.01 0.01 0.02 0.03 0.04 0.05 0.06 0.08 0.08 0.07 0.06 0.08 0.09 0.10 0.10 0.09 0.09 0.10 0.11 0.12 0.12 0.11 0.10 0.09 0.09 0.10 0.11 0.12 0.12 0.12 0.11 0.10 0.09 0.08 0.07 0.06 0.05 0.05 0.05 0.05
MSLP
1010.07 1009.53 1008.88 1008.13 1007.33 1006.50 1005.67 1004.87 1004.10 1003.39 1002.75 1002.19 1001.72 1001.35 1001.08 1000.88 1000.74 1000.63 1000.52 1000.40 1000.29 1000.21 1000.22 1000.39 1000.77 1001.42 1002.35 1003.54 1004.95 1006.50 1008.07 1009.57 1010.91 1012.03 1012.91 1013.56 1014.01 1014.31 1014.52 1014.69 1014.85 1015.01 1015.17
1009.18 1008.57 1007.85 1007.03 1006.13 1005.20 1004.27 1003.38 1002.54 1001.78 1001.11 1000.55 1000.10 999.78 999.56 999.43 999.38 999.37 999.37 999.39 999.41 999.46 999.58 999.83 1000.26 1000.91 1001.81 1002.96 1004.29 1005.77 1007.29 1008.77 1010.14 1011.32 1012.30 1013.06 1013.64 1014.06 1014.38 1014.63 1014.84 1015.03 1015.19
1008.28 1007.61 1006.81 1005.91 1004.93 1003.89 1002.85 1001.84 1000.90 1000.06 999.34 998.76 998.32 998.03 997.87 997.83 997.88 997.98 998.13 998.28 998.46 998.65 998.90 999.25 999.73 1000.40 1001.27 1002.35 1003.61 1005.00 1006.46 1007.90 1009.27 1010.50 1011.56 1012.43 1013.13 1013.68 1014.10 1014.43 1014.71 1014.93 1015.12
1007.45 1006.71 1005.86 1004.88 1003.80 1002.65 1001.48 1000.34 999.28 998.33 997.54 996.92 996.48 996.22 996.11 996.16 996.31 996.54 996.82 997.13 997.45 997.79 998.16 998.60 999.15 999.85 1000.70 1001.74 1002.93 1004.25 1005.64 1007.05 1008.41 1009.67 1010.79 1011.75 1012.55 1013.20 1013.72 1014.13 1014.47 1014.73 1014.94
1006.73 1005.92 1005.00 1003.95 1002.77 1001.50 1000.19 998.90 997.71 996.65 995.78 995.11 994.67 994.43 994.40 994.52 994.79 995.14 995.55 995.98 996.43 996.89 997.37 997.90 998.51 999.24 1000.10 1001.11 1002.27 1003.55 1004.91 1006.29 1007.65 1008.93 1010.10 1011.12 1011.98 1012.71 1013.29 1013.76 1014.14 1014.45 1014.69
1006.07 1005.20 1004.21 1003.08 1001.79 1000.40 998.95 997.53 996.20 995.04 994.10 993.40 992.96 992.78 992.81 993.04 993.40 993.86 994.37 994.91 995.45 996.00 996.56 997.16 997.82 998.59 999.48 1000.51 1001.67 1002.94 1004.29 1005.68 1007.04 1008.33 1009.52 1010.56 1011.46 1012.22 1012.84 1013.34 1013.75 1014.09 1014.36
1005.42 1004.47 1003.41 1002.19 1000.80 999.29 997.71 996.16 994.72 993.48 992.50 991.80 991.41 991.29 991.42 991.75 992.22 992.77 993.36 993.97 994.57 995.16 995.77 996.41 997.12 997.93 998.87 999.94 1001.13 1002.44 1003.81 1005.21 1006.58 1007.88 1009.07 1010.11 1011.01 1011.75 1012.37 1012.88 1013.30 1013.66 1013.97
1004.69 1003.66 1002.51 1001.19 999.70 998.07 996.39 994.74 993.23 991.95 990.97 990.32 990.00 989.99 990.24 990.68 991.26 991.89 992.55 993.19 993.81 994.42 995.04 995.70 996.45 997.30 998.29 999.42 1000.68 1002.04 1003.46 1004.88 1006.27 1007.56 1008.72 1009.73 1010.59 1011.31 1011.90 1012.39 1012.81 1013.20 1013.55
1003.85 1002.71 1001.47 1000.05 998.45 996.73 994.95 993.23 991.68 990.41 989.48 988.91 988.71 988.84 989.23 989.80 990.48 991.20 991.90 992.56 993.19 993.79 994.40 995.07 995.84 996.74 997.78 998.98 1000.31 1001.73 1003.20 1004.66 1006.05 1007.32 1008.45 1009.41 1010.21 1010.87 1011.42 1011.89 1012.32 1012.73 1013.13
1002.91 1001.67 1000.31 998.78 997.08 995.26 993.41 991.65 990.10 988.86 988.01 987.56 987.50 987.78 988.33 989.04 989.83 990.63 991.37 992.06 992.68 993.27 993.87 994.55 995.33 996.27 997.37 998.64 1000.03 1001.51 1003.02 1004.50 1005.89 1007.13 1008.21 1009.12 1009.86 1010.46 1010.97 1011.42 1011.85 1012.30 1012.76
1001.97 1000.61 999.12 997.47 995.66 993.75 991.84 990.06 988.52 987.34 986.58 986.25 986.34 986.77 987.47 988.31 989.22 990.10 990.90 991.61 992.25 992.84 993.46 994.14 994.96 995.94 997.09 998.41 999.86 1001.38 1002.92 1004.41 1005.78 1006.99 1008.02 1008.87 1009.56 1010.12 1010.60 1011.04 1011.49 1011.98 1012.52
1001.17 999.67 998.04 996.26 994.34 992.34 990.38 988.57 987.05 985.92 985.23 985.01 985.22 985.78 986.60 987.57 988.58 989.54 990.41 991.18 991.86 992.49 993.14 993.86 994.72 995.74 996.95 998.31 999.80 1001.35 1002.90 1004.37 1005.72 1006.90 1007.89 1008.70 1009.35 1009.89 1010.36 1010.82 1011.31 1011.85 1012.45
1000.61 998.98 997.21 995.29 993.25 991.17 989.14 987.30 985.79 984.69 984.05 983.90 984.18 984.83 985.74 986.80 987.90 988.95 989.90 990.75 991.50 992.20 992.92 993.71 994.63 995.71 996.96 998.36 999.87 1001.43 1002.97 1004.43 1005.75 1006.90 1007.86 1008.65 1009.30 1009.84 1010.34 1010.83 1011.36 1011.96 1012.62
1000.38 998.61 996.71 994.66 992.51 990.34 988.26 986.38 984.85 983.75 983.13 982.99 983.30 983.99 984.94 986.05 987.21 988.34 989.39 990.33 991.20 992.01 992.83 993.72 994.72 995.87 997.16 998.58 1000.09 1001.64 1003.16 1004.59 1005.89 1007.02 1007.98 1008.78 1009.44 1010.02 1010.56 1011.10 1011.68 1012.32 1013.02
1000.48 998.59 996.56 994.40 992.16 989.92 987.78 985.87 984.31 983.19 982.54 982.38 982.67 983.34 984.29 985.41 986.62 987.82 988.95 990.01 991.00 991.95 992.90 993.90 994.99 996.21 997.54 998.97 1000.48 1002.00 1003.49 1004.89 1006.16 1007.29 1008.26 1009.08 1009.79 1010.42 1011.02 1011.62 1012.25 1012.93 1013.65
1000.83 998.85 996.73 994.48 992.18 989.89 987.72 985.78 984.20 983.03 982.34 982.13 982.36 982.97 983.88 985.00 986.22 987.47 988.69 989.87 990.99 992.07 993.16 994.28 995.47 996.74 998.11 999.54 1001.02 1002.51 1003.96 1005.32 1006.58 1007.71 1008.70 1009.57 1010.33 1011.03 1011.69 1012.34 1013.01 1013.70 1014.43
1001.34 999.28 997.10 994.81 992.47 990.17 988.00 986.07 984.47 983.28 982.54 982.26 982.42 982.97 983.82 984.90 986.12 987.41 988.70 989.98 991.22 992.44 993.65 994.88 996.14 997.46 998.84 1000.26 1001.70 1003.14 1004.55 1005.88 1007.12 1008.25 1009.27 1010.18 1011.01 1011.77 1012.49 1013.19 1013.88 1014.58 1015.27
1001.86 999.77 997.56 995.26 992.94 990.67 988.54 986.64 985.07 983.88 983.11 982.79 982.88 983.36 984.15 985.19 986.39 987.70 989.04 990.40 991.74 993.06 994.37 995.68 997.00 998.34 999.71 1001.10 1002.49 1003.87 1005.22 1006.52 1007.74 1008.87 1009.91 1010.87 1011.75 1012.57 1013.33 1014.06 1014.77 1015.45 1016.12
1002.31 1000.21 998.00 995.74 993.48 991.28 989.23 987.40 985.88 984.72 983.97 983.62 983.68 984.10 984.84 985.84 987.03 988.34 989.72 991.13 992.54 993.92 995.29 996.64 997.98 999.32 1000.66 1002.00 1003.34 1004.66 1005.95 1007.20 1008.40 1009.53 1010.59 1011.58 1012.50 1013.36 1014.15 1014.90 1015.61 1016.27 1016.90
1002.65 1000.56 998.39 996.19 994.01 991.91 989.97 988.24 986.81 985.72 985.00 984.67 984.71 985.11 985.83 986.80 987.97 989.28 990.68 992.11 993.55 994.97 996.36 997.71 999.05 1000.35 1001.65 1002.93 1004.20 1005.45 1006.69 1007.90 1009.07 1010.19 1011.26 1012.27 1013.21 1014.10 1014.91 1015.67 1016.37 1017.01 1017.60
1002.90 1000.83 998.72 996.59 994.51 992.52 990.70 989.09 987.77 986.77 986.11 985.82 985.89 986.29 987.00 987.96 989.12 990.42 991.82 993.25 994.69 996.10 997.49 998.82 1000.12 1001.38 1002.62 1003.84 1005.05 1006.25 1007.44 1008.61 1009.75 1010.86 1011.93 1012.94 1013.90 1014.79 1015.61 1016.37 1017.06 1017.68 1018.24
1003.11 1001.09 999.03 996.98 994.99 993.12 991.41 989.92 988.71 987.80 987.22 986.99 987.09 987.52 988.24 989.20 990.35 991.65 993.03 994.45 995.87 997.26 998.61 999.91 1001.17 1002.38 1003.57 1004.73 1005.89 1007.05 1008.19 1009.33 1010.46 1011.55 1012.61 1013.62 1014.58 1015.47 1016.29 1017.04 1017.72 1018.33 1018.87
1003.37 1001.38 999.38 997.41 995.50 993.72 992.11 990.72 989.60 988.77 988.27 988.10 988.25 988.71 989.45 990.42 991.58 992.87 994.23 995.63 997.02 998.38 999.69 1000.95 1002.16 1003.33 1004.48 1005.61 1006.73 1007.85 1008.98 1010.10 1011.21 1012.29 1013.34 1014.35 1015.29 1016.18 1016.99 1017.73 1018.40 1019.00 1019.53
1003.72 1001.78 999.83 997.91 996.07 994.35 992.82 991.50 990.45 989.69 989.25 989.13 989.33 989.83 990.59 991.58 992.75 994.03 995.38 996.76 998.12 999.45 1000.72 1001.94 1003.12 1004.26 1005.38 1006.48 1007.59 1008.70 1009.82 1010.93 1012.03 1013.11 1014.15 1015.14 1016.08 1016.95 1017.75 1018.48 1019.14 1019.73 1020.24
1004.19 1002.30 1000.39 998.51 996.72 995.05 993.55 992.28 991.27 990.56 990.17 990.09 990.33 990.87 991.66 992.67 993.85 995.13 996.48 997.84 999.18 1000.48 1001.72 1002.92 1004.07 1005.19 1006.29 1007.40 1008.50 1009.61 1010.73 1011.84 1012.94 1014.01 1015.05 1016.03 1016.95 1017.80 1018.58 1019.30 1019.94 1020.51 1021.00
1004.76 1002.92 1001.05 999.22 997.45 995.81 994.34 993.10 992.12 991.43 991.07 991.03 991.30 991.87 992.69 993.73 994.92 996.22 997.56 998.91 1000.24 1001.52 1002.75 1003.93 1005.06 1006.17 1007.27 1008.37 1009.48 1010.59 1011.71 1012.83 1013.93 1014.99 1016.01 1016.97 1017.87 1018.70 1019.46 1020.15 1020.76 1021.30 1021.76
Thickness
5530 5533 5534 5535 5537 5540 5544 5550 5555 5561 5567 5573 5580 5588 5597 5606 5615 5623 5631 5637 5642 5647 5651 5655 5658 5661 5663 5664 5663 5661 5659 5657 5654 5650 5645 5643 5645 5645 5646 5646 5644 5643 5641
5521 5523 5523 5522 5524 5528 5532 5537 5544 5551 5557 5563 5571 5580 5587 5596 5606 5614 5621 5628 5633 5639 5643 5647 5652 5656 5657 5657 5658 5658 5654 5651 5652 5649 5642 5636 5634 5637 5640 5639 5639 5637 5636
5510 5512 5513 5514 5516 5518 5522 5528 5535 5542 5548 5555 5561 5569 5574 5584 5592 5602 5611 5620 5625 5631 5636 5641 5646 5649 5652 5653 5655 5655 5654 5649 5646 5648 5645 5637 5635 5632 5632 5633 5633 5632 5630
5500 5503 5504 5506 5508 5511 5515 5520 5526 5533 5540 5547 5552 5559 5565 5574 5586 5595 5603 5611 5618 5623 5629 5634 5639 5643 5647 5649 5650 5651 5652 5649 5644 5642 5643 5643 5642 5634 5627 5626 5626 5626 5625
5492 5494 5496 5498 5501 5504 5508 5514 5520 5527 5534 5539 5545 5551 5558 5567 5577 5585 5594 5602 5609 5615 5622 5628 5633 5638 5641 5644 5645 5646 5647 5646 5644 5642 5638 5636 5636 5634 5630 5624 5620 5619 5619
5484 5486 5488 5491 5494 5497 5502 5509 5516 5521 5526 5532 5539 5545 5552 5559 5567 5577 5585 5593 5601 5608 5615 5621 5627 5633 5637 5640 5641 5642 5642 5642 5640 5639 5637 5637 5635 5631 5627 5622 5617 5614 5613
5476 5477 5480 5483 5487 5491 5497 5503 5509 5514 5520 5526 5533 5540 5548 5554 5561 5570 5579 5588 5595 5602 5610 5616 5622 5627 5631 5634 5636 5636 5637 5637 5636 5635 5634 5634 5634 5631 5626 5621 5614 5609 5606
5469 5471 5473 5476 5480 5484 5489 5494 5500 5507 5513 5520 5528 5536 5543 5549 5556 5565 5575 5584 5591 5599 5605 5611 5617 5620 5624 5627 5629 5631 5631 5631 5631 5630 5629 5628 5627 5626 5624 5620 5613 5605 5599
5464 5465 5467 5469 5472 5476 5481 5487 5494 5502 5508 5515 5522 5530 5538 5545 5552 5561 5570 5579 5587 5594 5600 5606 5611 5615 5618 5621 5623 5624 5625 5625 5624 5625 5624 5623 5622 5621 5620 5618 5615 5608 5599
5459 5460 5462 5464 5468 5471 5476 5482 5488 5494 5502 5510 5516 5524 5533 5541 5548 5557 5565 5573 5582 5589 5595 5600 5606 5610 5612 5615 5617 5618 5619 5619 5618 5618 5618 5618 5616 5615 5614 5612 5610 5607 5601
5451 5453 5456 5460 5463 5466 5471 5476 5482 5488 5495 5503 5511 5518 5527 5536 5543 5553 5561 5568 5577 5584 5591 5596 5602 5606 5608 5610 5611 5613 5614 5614 5613 5612 5613 5613 5612 5610 5608 5606 5604 5601 5597
5446 5448 5451 5454 5457 5461 5465 5470 5476 5482 5489 5497 5505 5513 5522 5529 5539 5548 5557 5565 5572 5579 5587 5593 5598 5601 5603 5605 5607 5609 5610 5610 5609 5609 5608 5608 5607 5605 5603 5601 5598 5595 5593
5441 5443 5446 5449 5452 5456 5460 5466 5472 5478 5484 5491 5499 5508 5516 5525 5534 5544 5552 5560 5569 5577 5583 5588 5592 5596 5599 5602 5604 5606 5606 5606 5607 5606 5605 5605 5603 5601 5599 5597 5593 5590 5587
5435 5437 5440 5443 5447 5451 5455 5461 5468 5474 5480 5486 5494 5503 5512 5521 5530 5540 5549 5557 5566 5573 5578 5583 5588 5591 5595 5598 5600 5601 5601 5601 5602 5602 5602 5601 5600 5599 5596 5592 5589 5585 5580
5431 5433 5435 5437 5442 5446 5452 5458 5463 5470 5477 5483 5491 5500 5509 5517 5526 5536 5546 5554 5561 5568 5573 5578 5582 5586 5589 5593 5595 5596 5597 5597 5597 5597 5597 5597 5596 5595 5593 5590 5585 5581 5575
5424 5426 5430 5432 5436 5441 5447 5453 5459 5466 5473 5479 5487 5497 5505 5513 5522 5532 5541 5549 5556 5562 5568 5574 5577 5580 5585 5589 5591 5593 5593 5593 5593 5593 5592 5591 5590 5589 5588 5586 5582 5579 5573
5417 5419 5421 5424 5429 5435 5441 5447 5454 5462 5469 5475 5483 5491 5500 5509 5517 5527 5536 5543 5550 5557 5563 5569 5572 5577 5581 5585 5587 5588 5590 5589 5589 5589 5587 5586 5584 5582 5580 5577 5574 5571 5568
5411 5412 5414 5418 5424 5430 5435 5442 5449 5456 5463 5470 5477 5486 5494 5503 5511 5520 5529 5537 5543 5549 5556 5562 5567 5572 5577 5580 5583 5583 5584 5585 5586 5585 5585 5582 5579 5576 5574 5570 5565 5561 5558
5406 5407 5410 5414 5418 5424 5430 5436 5443 5449 5456 5463 5470 5478 5486 5495 5504 5512 5521 5529 5535 5541 5548 5555 5561 5567 5572 5575 5577 5577 5578 5580 5580 5580 5579 5578 5575 5573 5569 5564 5558 5552 5548
5403 5405 5407 5410 5414 5419 5424 5429 5436 5442 5448 5456 5464 5471 5479 5488 5496 5504 5513 5521 5528 5535 5542 5549 5556 5562 5567 5569 5572 5573 5575 5575 5574 5573 5573 5572 5571 5568 5564 5560 5555 5548 5541
5400 5402 5403 5406 5410 5414 5418 5424 5430 5436 5443 5450 5457 5465 5473 5480 5488 5497 5506 5514 5521 5528 5535 5543 5550 5556 5561 5564 5566 5569 5573 5573 5571 5569 5568 5566 5564 5562 5559 5556 5552 5546 5537
5395 5397 5398 5402 5406 5409 5412 5418 5425 5431 5438 5445 5451 5458 5466 5473 5483 5490 5499 5507 5513 5520 5527 5535 5542 5548 5553 5558 5561 5564 5567 5568 5567 5566 5563 5561 5557 5554 5551 5548 5544 5537 5529
5388 5390 5392 5396 5401 5404 5408 5412 5420 5426 5433 5439 5445 5452 5460 5468 5476 5483 5492 5499 5506 5513 5520 5527 5534 5539 5546 5551 5555 5557 5559 5560 5560 5559 5557 5554 5550 5546 5542 5539 5534 5527 5521
5382 5384 5386 5390 5396 5401 5404 5408 5414 5421 5427 5433 5440 5447 5454 5461 5469 5477 5486 5493 5500 5506 5513 5520 5527 5533 5538 5544 5548 5550 5551 5550 5550 5550 5547 5544 5540 5537 5533 5528 5523 5519 5515
5376 5378 5381 5385 5390 5395 5400 5405 5410 5416 5421 5427 5433 5439 5446 5454 5462 5470 5478 5486 5494 5501 5508 5515 5522 5528 5533 5539 5543 5546 5546 5546 5546 5542 5538 5534 5530 5526 5522 5518 5514 5510 5505
5370 5373 5376 5380 5385 5389 5395 5401 5406 5410 5416 5421 5427 5433 5440 5447 5455 5463 5471 5479 5486 5494 5501 5508 5516 5523 5528 5531 5535 5537 5539 5539 5538 5536 5533 5529 5526 5522 5518 5513 5507 5503 5499